METEOR 2-6 DEB

Satellite information

Favourite Embed

Satellite Type and Status

DEBRISIN ORBIT

Key statistics

Satellite METEOR 2-6 DEB at a glance.

Uptime

16432

Days in orbit

Revolutions

≈ 14.3

Per day

Orbit

LEO

Low Earth Orbit

Inclination

81.2

Latest

Satellite identification and parameters

Extended collection of information and parameters for METEOR 2-6 DEB.

Object identification

Identified? True

Debris? True

Object name: METEOR 2-6 DEB

International designator: 1980-073V

Object number (NORAD): 45501

Object ID (CCSDS): 45501

Country: COMMONWEALTH OF INDEPENDENT STATES (CIS)

Current information (Y/N): Y

RCS size: SMALL

Orbital parameters

Period: 100.485 minutes

Inclination: 81.2149 deg

SMA: 7159.682 km

Apoapsis: 805.185 km

Periapsis: 757.909 km

RAAN: 325.9147 deg

Eccentricy: 0.00330156

Argument of periapsis: 73.4714 deg

Mean anomaly: 287.0092 deg

Mean motion: 14.33052697 rev/day

Mean motion (dot): 0.00008393 rev/day2

B* drag term: 0.0030393361 1/REarth

Two-line elements (TLE)

Creation date: Sept. 3, 2025, 10:15 a.m.

Reference frame: TEME

Reference center: EARTH

Epoch: Sept. 2, 2025, 10:34 p.m. UTC

TLE line 0: 0 METEOR 2-6 DEB

TLE line 1: 1 45501U 80073V 25245.94061874 .00008393 00000-0 30393-2 0 9993

TLE line 2: 2 45501 81.2149 325.9147 0033016 73.4714 287.0092 14.33052697529107

Live tracking on map

Real-time ground track for satellite METEOR 2-6 DEB.

In-orbit conjunctions

A list of the most updated potential collisions computed for object METEOR 2-6 DEB.

Target Orbit TCA Probability of collision Miss distance Type
COSMOS 1814 LEO 2025-05-12 13:59:52 0.000110492 402.0 (m) PAYLOAD
CZ-6A DEB SSO 2024-12-18 14:15:07 0.0001639959 100.0 (m) DEBRIS

Associated space launch

Second generation soviet meteorological satellite

METEOR 2-6 DEB was lifted into orbit during the mission ‘Vostok 8A92M | Meteor-2 6’, on board a Vostok 8A92M space rocket.

The launch took place on Sept. 9, 1980, 11 a.m. from 43/3 (43L).

For more information about the launch, click the button.

Launch to space Vostok 8A92M | Meteor-2 6
Vostok 8A92M | Meteor-2 6

Agency: N/A

Status: Launch Successful

Launch date: Sept. 9, 1980, 11 a.m. UTC

Rocket: Vostok 8A92M

Launch pad: 43/3 (43L)

Location: Plesetsk Cosmodrome, Russian Federation

...

Latest news about this satellite

There are no fresh news available about this satellite. Check back as we update our databases every day.


Newsletter sign-up

Weekly statistics, charts and insights to help you stay on top of the space industry.